Location: Jonesport
(44.5330°N, 67.5990°W)
Time: 09:33:46
(UTC-04:00)

Iridium 35 - Visible Passes

Search period start: 29 September 2016 00:00
Search period end: 09 October 2016 00:00
Orbit: 776 x 779 km, 86.4° (Epoch: 28 September)

Date Brightness Start Highest point End Pass type
(mag) Time Alt. Az. Time Alt. Az. Time Alt. Az.
29 Sep 5.5 04:17:34 10° SSE 04:22:42 62° E 04:27:51 10° N visible
30 Sep 6.5 03:44:39 10° SSE 03:49:19 34° E 03:54:01 10° NNE visible
30 Sep 5.8 05:25:30 10° SW 05:30:03 30° WNW 05:34:37 10° NNW visible
01 Oct 7.4 03:12:23 10° SE 03:16:04 20° E 03:19:46 10° NNE visible
01 Oct 5.1 04:51:55 14° SSW 04:56:21 53° W 05:01:28 10° N visible
02 Oct 7.9 02:41:37 10° E 02:42:56 11° ENE 02:44:17 10° ENE visible
02 Oct 4.9 04:19:41 25° S 04:22:47 87° E 04:28:02 10° N visible
02 Oct 6.8 06:02:11 10° W 06:04:15 12° WNW 06:06:20 10° NW visible
03 Oct 5.8 03:47:16 31° SE 03:49:20 49° E 03:54:21 10° NNE visible
03 Oct 6.2 05:27:48 16° WSW 05:30:20 22° WNW 05:34:19 10° NNW visible
04 Oct 6.8 03:14:43 25° ESE 03:16:00 28° E 03:20:22 10° NNE visible
04 Oct 5.5 04:55:15 32° WSW 04:56:33 37° W 05:01:23 10° NNW visible
05 Oct 7.5 02:42:04 15° E 02:42:48 16° ENE 02:45:52 10° NE visible
05 Oct 4.9 04:22:35 65° WSW 04:22:54 66° W 04:28:07 10° N visible
06 Oct 5.3 03:49:52 65° NE 03:49:52 65° NE 03:54:35 10° N visible
06 Oct 6.5 05:30:22 15° WNW 05:30:40 15° WNW 05:33:44 10° NW visible
07 Oct 6.5 03:17:03 35° ENE 03:17:03 35° ENE 03:20:48 10° NNE visible
07 Oct 6.1 04:57:33 26° WNW 04:57:33 26° WNW 05:01:12 10° NNW visible
08 Oct 7.4 02:44:11 20° ENE 02:44:11 20° ENE 02:46:40 10° NNE visible
08 Oct 5.8 04:24:41 35° NW 04:24:41 35° NW 04:28:07 10° N visible
